Regional Weather Roundup
Issued by NWS Midland/Odessa, TX

Skip options and go directly to product.
Home | Oldest Version | Previous Version | Current Version | All | Graphics & Text | Save Text | Print | Product List | Glossary On

Skip product version selection by date and time.   
084
ASUS44 KMAF 081210
RWRMAF
MIDLAND AREA WEATHER ROUNDUP
NATIONAL WEATHER SERVICE MIDLAND TX
600 AM CST MON FEB 08 2016

...IN SOUTHWEST TEXAS AND SOUTHEAST NEW MEXICO...

CITY           SKY/WX    TMP DP  RH WIND       PRES   REMARKS
ALPINE         CLOUDY    36  22  56 NE20      30.47R WCI  25
ANDREWS        FAIR      28  15  58 N9        30.46R WCI  19
ARTESIA        CLOUDY    27  19  74 NW9       30.51S WCI  17
BIG SPRING     CLOUDY    31  12  44 N7        30.46S WCI  25
CARLSBAD       CLOUDY    27  18  69 NW7       30.50R WCI  19
DRYDEN           N/A     45  21  38 N13       30.41R WCI  39
FORT STOCKTON  CLOUDY    36  23  59 N5        30.47R WCI  32
GUAD PASS      CLOUDY    29  17  61 NE45      30.36R WCI  11
HOBBS          CLOUDY    25  16  68 NW7       30.47S WCI  17
MARFA          CLOUDY    39  18  42 NE8G18    30.39R WCI  33
MIDLAND AIRPK  CLOUDY    32  17  54 N7        30.45S WCI  25
MIDLAND INTL   CLOUDY    30  16  56 N8        30.44R WCI  22
ODESSA         CLOUDY    31  15  52 N8        30.45R WCI  23
PECOS          CLOUDY    37  18  44 N5        30.51R WCI  34
PRESIDIO       FAIR      50  17  26 NE7       30.32R
SEMINOLE       CLOUDY    28  15  60 NW7       30.47R WCI  20
SNYDER           N/A     33  13  44 N14       30.42S WCI  24
WINK           CLOUDY    30  17  58 N8        30.48R WCI  22
$$
...OTHER STATIONS IN TEXAS...

CITY           SKY/WX    TMP DP  RH WIND       PRES   REMARKS
ABILENE        CLEAR     33  16  49 NW9       30.40R WCI  25
AMARILLO       CLOUDY    25  14  63 NW12      30.42R WCI  14
AUSTIN         CLEAR     47  25  42 N15       30.33R
BROWNSVILLE    CLOUDY    53  52  96 CALM      30.20R
CORPUS CHRISTI CLOUDY    48  42  80 NW10      30.24R
DALLAS FTW     PTCLDY    43  19  38 NW17      30.30R WCI  35
DEL RIO        CLOUDY    46  26  45 NW7       30.37R
EL PASO        PTCLDY    38  16  40 N3        30.35R
HOUSTON INT    CLEAR     47  37  68 N14       30.25R
LUBBOCK        CLOUDY    23  13  65 NW9       30.43R WCI  13
SAN ANGELO     CLOUDY    38  15  39 CALM      30.41R
SAN ANTONIO    PTCLDY    50  30  46 N17       30.31R
WACO           CLEAR     42  21  43 NW8       30.34R WCI  37
WICHITA FALLS  NOT AVBL
$$
...OTHER LOCATIONS IN NEW MEXICO...

CITY           SKY/WX    TMP DP  RH WIND       PRES   REMARKS
ALAMAGORDO     CLOUDY    32  12  43 SE5       30.35R WCI  27
ALBUQUERQUE    CLOUDY    31  19  61 NW5       30.43R WCI  26
CANNON AFB     CLEAR     22  12  63 N9        30.44R WCI  12
CLOVIS         CLOUDY    21  10  63 NW9       30.45R WCI  11
HOLLOMAN AFB   CLOUDY    31  13  48 SW7       30.34R WCI  24
ROSWELL        CLOUDY    29  15  56 NW7       30.50S WCI  22
RUIDOSO          N/A     21  14  73 S8        30.44R WCI  12
SANTA FE       CLOUDY    23  18  81 N12       30.41S WCI  12
TRUTH OR CONSE CLEAR     38  16  40 N8        30.37R WCI  32
TUCUMCARI      CLEAR     22  15  75 W10       30.46R WCI  11
$$

USA.gov is the U.S. government's official web portal to all federal, state and local government web resources and services.